Powrót do katalogu

ATLAS CENTAUR R/B

AktywnyLEO
NORAD 3598·ROCKET BODY·🇺🇸 United States

Wystrzelony Dec 7, 1968 z Cape Canaveral Space Force Station

Loading…

Następne Przeloty (najbliższe 24 godziny)

TLE

ŚwieżeSource: Space-Track

Epoka: Sep 14, 2026, 12:01 UTC

1 03598U 68110B   26257.50136220  .00000355  00000-0  79851-4 0  9999
2 03598  34.9933 322.5997 0047016 296.8990  62.6905 14.57739575 37614

Śledź ATLAS CENTAUR R/B w czasie rzeczywistym z AllMySat

Download on the App Store